Temp: 12.6°C   Baro: 1022.4mb
  Wind: 2.0mph   Dir: NE (54°)
  Rain: 0.0mm (0.0mm/hr)
  Solar: 0W/m2  Hum: 82%

Historic data

Bath Spa Weather Station Historical Data
Daily Summary for September 25, 2021 Units:  Metric    English   Both
Daily Weekly Monthly Yearly Custom
  High: Low: Average:
Temperature: 19.7 °C 15.2 °C 17.1 °C
Dew Point: 17.1 °C 14.1 °C 15.8 °C
Humidity: 95% 80.4% 90%
Wind Speed: 7.6km/h 0km/h 1.8km/h
Wind Gust: 14.5km/h - -
Wind- - WNW
Pressure: 1016.1 hPa 1012.1 hPa -
Precipitation: 0 mm    
Historical Graphs
 
 
Tabular Data for September 25, 2021
Time Temperature Dew Point Pressure Wind Wind Speed Wind Gust Humidity Rainfall Rate (Hourly) solar
00:04 16.8 °C 16.1 °C 1016.1 hPa WNW 3.9 km/h 8 km/h 92% 0 mm 0 W/m2
00:09 16.8 °C 16 °C 1016.1 hPa WNW 4.8 km/h 8 km/h 92% 0 mm 0 W/m2
00:14 16.8 °C 16 °C 1016.1 hPa WNW 5.8 km/h 9.7 km/h 92% 0 mm 0 W/m2
00:18 16.8 °C 16 °C 1016.1 hPa WNW 4.3 km/h 8 km/h 92% 0 mm 0 W/m2
00:24 16.8 °C 16 °C 1016.1 hPa WNW 5.3 km/h 8 km/h 92% 0 mm 0 W/m2
00:29 16.7 °C 15.9 °C 1016.1 hPa WNW 2.7 km/h 8 km/h 92% 0 mm 0 W/m2
00:34 16.7 °C 16 °C 1016.1 hPa WNW 3.1 km/h 8 km/h 92.6% 0 mm 0 W/m2
00:39 16.7 °C 16.1 °C 1016.1 hPa WNW 4 km/h 8 km/h 93% 0 mm 0 W/m2
00:44 16.6 °C 16 °C 1016.1 hPa WNW 5.5 km/h 8 km/h 93% 0 mm 0 W/m2
00:49 16.6 °C 15.9 °C 1016.1 hPa WNW 2.3 km/h 6.4 km/h 93% 0 mm 0 W/m2
00:54 16.4 °C 15.8 °C 1016.1 hPa WNW 4.5 km/h 8 km/h 93% 0 mm 0 W/m2
00:59 16.4 °C 15.8 °C 1016.1 hPa WNW 3.4 km/h 8 km/h 93% 0 mm 0 W/m2
01:04 16.4 °C 15.8 °C 1015.8 hPa WNW 6.8 km/h 11.3 km/h 93% 0 mm 0 W/m2
01:09 16.4 °C 15.8 °C 1015.8 hPa WNW 3.7 km/h 8 km/h 93% 0 mm 0 W/m2
01:14 16.3 °C 15.7 °C 1015.8 hPa WNW 4.2 km/h 8 km/h 93% 0 mm 0 W/m2
01:19 16.3 °C 15.7 °C 1015.8 hPa WNW 2.6 km/h 6.4 km/h 93% 0 mm 0 W/m2
01:24 16.3 °C 15.7 °C 1015.8 hPa WNW 4.7 km/h 9.7 km/h 93% 0 mm 0 W/m2
01:29 16.3 °C 15.7 °C 1015.8 hPa WNW 6.6 km/h 11.3 km/h 93% 0 mm 0 W/m2
01:34 16.3 °C 15.8 °C 1015.8 hPa WNW 2.6 km/h 6.4 km/h 93.8% 0 mm 0 W/m2
01:39 16.3 °C 15.8 °C 1016.1 hPa WNW 3.2 km/h 9.7 km/h 94% 0 mm 0 W/m2
01:44 16.2 °C 15.7 °C 1016.1 hPa WNW 4 km/h 9.7 km/h 94% 0 mm 0 W/m2
01:49 16.2 °C 15.7 °C 1016.1 hPa WNW 5.1 km/h 8 km/h 94% 0 mm 0 W/m2
01:54 16.2 °C 15.7 °C 1015.8 hPa WNW 4.7 km/h 8 km/h 94% 0 mm 0 W/m2
01:59 16.2 °C 15.7 °C 1015.8 hPa WNW 2.7 km/h 8 km/h 94% 0 mm 0 W/m2
02:04 16.2 °C 15.7 °C 1015.8 hPa WNW 4.7 km/h 9.7 km/h 94% 0 mm 0 W/m2
02:09 16.1 °C 15.6 °C 1015.8 hPa WNW 3.1 km/h 9.7 km/h 94% 0 mm 0 W/m2
02:14 16.1 °C 15.6 °C 1015.8 hPa WNW 4 km/h 8 km/h 94% 0 mm 0 W/m2
02:19 16.1 °C 15.6 °C 1015.8 hPa WNW 4.7 km/h 9.7 km/h 94% 0 mm 0 W/m2
02:24 16 °C 15.5 °C 1015.8 hPa WNW 2.7 km/h 9.7 km/h 94% 0 mm 0 W/m2
02:29 16 °C 15.5 °C 1015.8 hPa WNW 4 km/h 9.7 km/h 94% 0 mm 0 W/m2
02:34 16 °C 15.5 °C 1015.8 hPa WNW 4.7 km/h 9.7 km/h 94% 0 mm 0 W/m2
02:39 16 °C 15.5 °C 1015.8 hPa WNW 3.2 km/h 8 km/h 94% 0 mm 0 W/m2
02:44 15.9 °C 15.4 °C 1015.8 hPa WNW 3.4 km/h 11.3 km/h 94% 0 mm 0 W/m2
02:49 15.9 °C 15.4 °C 1015.8 hPa WNW 4.7 km/h 9.7 km/h 94% 0 mm 0 W/m2
02:54 15.9 °C 15.4 °C 1015.8 hPa WNW 4 km/h 8 km/h 94% 0 mm 0 W/m2
02:59 15.9 °C 15.4 °C 1015.8 hPa WNW 2.4 km/h 4.8 km/h 94% 0 mm 0 W/m2
03:04 15.9 °C 15.4 °C 1015.8 hPa WNW 1.6 km/h 4.8 km/h 94% 0 mm 0 W/m2
03:09 15.9 °C 15.4 °C 1015.8 hPa WNW 1 km/h 4.8 km/h 94% 0 mm 0 W/m2
03:14 15.9 °C 15.4 °C 1015.8 hPa WNW 2.7 km/h 6.4 km/h 94% 0 mm 0 W/m2
03:19 15.9 °C 15.4 °C 1015.8 hPa WNW 4.8 km/h 8 km/h 94% 0 mm 0 W/m2
03:24 15.8 °C 15.3 °C 1015.5 hPa WNW 3.7 km/h 8 km/h 94% 0 mm 0 W/m2
03:29 15.8 °C 15.3 °C 1015.5 hPa WNW 4 km/h 8 km/h 94% 0 mm 0 W/m2
03:34 15.8 °C 15.3 °C 1015.5 hPa WNW 3.9 km/h 8 km/h 94% 0 mm 0 W/m2
03:39 15.8 °C 15.3 °C 1015.5 hPa WNW 4.7 km/h 9.7 km/h 94% 0 mm 0 W/m2
03:44 15.8 °C 15.3 °C 1015.1 hPa WNW 3.5 km/h 8 km/h 94% 0 mm 0 W/m2
03:49 15.8 °C 15.2 °C 1015.1 hPa WNW 2.7 km/h 8 km/h 93.4% 0 mm 0 W/m2
03:54 15.8 °C 15.2 °C 1015.1 hPa WNW 1.4 km/h 4.8 km/h 93% 0 mm 0 W/m2
03:59 15.8 °C 15.3 °C 1015.1 hPa WNW 3.4 km/h 8 km/h 94% 0 mm 0 W/m2
04:04 15.8 °C 15.3 °C 1015.1 hPa WNW 1.4 km/h 4.8 km/h 93.8% 0 mm 0 W/m2
04:09 15.8 °C 15.3 °C 1015.1 hPa WNW 2.1 km/h 4.8 km/h 94% 0 mm 0 W/m2
04:14 15.8 °C 15.3 °C 1015.1 hPa WNW 1 km/h 4.8 km/h 93.8% 0 mm 0 W/m2
04:19 15.8 °C 15.3 °C 1015.1 hPa WNW 0.8 km/h 1.6 km/h 94% 0 mm 0 W/m2
04:24 15.8 °C 15.3 °C 1015.1 hPa WNW 0.3 km/h 1.6 km/h 94% 0 mm 0 W/m2
04:29 15.8 °C 15.3 °C 1015.1 hPa WNW 1.1 km/h 4.8 km/h 94% 0 mm 0 W/m2
04:34 15.8 °C 15.3 °C 1015.1 hPa WNW 0.8 km/h 3.2 km/h 94% 0 mm 0 W/m2
04:39 15.8 °C 15.3 °C 1015.1 hPa WNW 0.3 km/h 1.6 km/h 94% 0 mm 0 W/m2
04:44 15.7 °C 15.2 °C 1015.1 hPa WNW 1.3 km/h 3.2 km/h 93.8% 0 mm 0 W/m2
04:49 15.7 °C 15.2 °C 1015.1 hPa WNW 2.6 km/h 3.2 km/h 93.6% 0 mm 0 W/m2
04:54 15.7 °C 15.1 °C 1015.1 hPa WNW 1.3 km/h 3.2 km/h 93.2% 0 mm 0 W/m2
04:59 15.7 °C 15.1 °C 1015.1 hPa WNW 0.6 km/h 4.8 km/h 93% 0 mm 0 W/m2
05:04 15.7 °C 15.2 °C 1015.1 hPa WNW 2.6 km/h 4.8 km/h 93.4% 0 mm 0 W/m2
05:09 15.8 °C 15.2 °C 1015.1 hPa WNW 1.6 km/h 3.2 km/h 93.8% 0 mm 0 W/m2
05:14 15.8 °C 15.3 °C 1015.1 hPa WNW 0.6 km/h 3.2 km/h 94% 0 mm 0 W/m2
05:19 15.8 °C 15.3 °C 1015.1 hPa WNW 1.9 km/h 3.2 km/h 94% 0 mm 0 W/m2
05:24 15.8 °C 15.3 °C 1015.1 hPa Calm   3.2 km/h 94% 0 mm 0 W/m2
05:29 15.8 °C 15.3 °C 1015.1 hPa WNW 0.6 km/h 3.2 km/h 94% 0 mm 0 W/m2
05:34 15.8 °C 15.3 °C 1015.1 hPa Calm   3.2 km/h 94% 0 mm 0 W/m2
05:39 15.8 °C 15.3 °C 1015.1 hPa WNW 0.3 km/h 3.2 km/h 94% 0 mm 0 W/m2
05:44 15.9 °C 15.4 °C 1014.8 hPa WNW 0.8 km/h 4.8 km/h 94% 0 mm 0 W/m2
05:49 15.8 °C 15.3 °C 1014.8 hPa WNW 0.6 km/h 4.8 km/h 94% 0 mm 0 W/m2
05:54 15.8 °C 15.3 °C 1014.8 hPa WNW 1.6 km/h 4.8 km/h 94% 0 mm 0 W/m2
05:59 15.8 °C 15.3 °C 1014.8 hPa WNW 1.6 km/h 6.4 km/h 94% 0 mm 0 W/m2
06:04 15.8 °C 15.3 °C 1014.8 hPa WNW 1.3 km/h 3.2 km/h 94% 0 mm 0 W/m2
06:09 15.8 °C 15.3 °C 1014.8 hPa Calm   4.8 km/h 93.6% 0 mm 0 W/m2
06:14 15.8 °C 15.3 °C 1014.8 hPa WNW 0.3 km/h 3.2 km/h 93.8% 0 mm 0 W/m2
06:19 15.7 °C 15.2 °C 1014.8 hPa WNW 0.8 km/h 3.2 km/h 93.4% 0 mm 0 W/m2
06:24 15.7 °C 15.1 °C 1014.8 hPa Calm   1.6 km/h 93% 0 mm 0 W/m2
06:28 15.7 °C 15.2 °C 1014.8 hPa WNW 0.3 km/h 1.6 km/h 93.5% 0 mm 0 W/m2
06:34 15.7 °C 15.2 °C 1014.8 hPa Calm   1.6 km/h 94% 0 mm 0 W/m2
06:39 15.7 °C 15.2 °C 1014.4 hPa Calm     94% 0 mm 0 W/m2
06:44 15.7 °C 15.2 °C 1014.4 hPa Calm     94% 0 mm 0 W/m2
06:49 15.7 °C 15.2 °C 1014.8 hPa Calm     94% 0 mm 0 W/m2
06:54 15.7 °C 15.2 °C 1014.8 hPa Calm     94% 0 mm 0 W/m2
06:59 15.7 °C 15.2 °C 1014.8 hPa Calm     94% 0 mm 0 W/m2
07:04 15.6 °C 15.1 °C 1014.8 hPa Calm     94% 0 mm 0 W/m2
07:09 15.6 °C 15.1 °C 1014.8 hPa WNW 0.6 km/h 3.2 km/h 94% 0 mm 0 W/m2
07:14 15.6 °C 15.1 °C 1014.8 hPa WNW 1 km/h 4.8 km/h 94% 0 mm 5 W/m2
07:19 15.6 °C 15.1 °C 1014.8 hPa WNW 0.8 km/h 4.8 km/h 94% 0 mm 5 W/m2
07:24 15.6 °C 15.1 °C 1014.8 hPa Calm   1.6 km/h 94% 0 mm 9 W/m2
07:29 15.6 °C 15.1 °C 1014.8 hPa WNW 1 km/h 3.2 km/h 94% 0 mm 9 W/m2
07:34 15.6 °C 15.1 °C 1014.8 hPa WNW 1.8 km/h 4.8 km/h 94% 0 mm 12 W/m2
07:38 15.6 °C 15.1 °C 1014.8 hPa WNW 3.1 km/h 6.4 km/h 94% 0 mm 12 W/m2
07:44 15.6 °C 15.1 °C 1014.8 hPa WNW 3.2 km/h 6.4 km/h 94% 0 mm 14 W/m2
07:49 15.4 °C 14.9 °C 1014.8 hPa WNW 2.6 km/h 6.4 km/h 94% 0 mm 16 W/m2
07:54 15.4 °C 14.9 °C 1014.8 hPa WNW 5.1 km/h 8 km/h 94% 0 mm 26 W/m2
07:59 15.3 °C 14.8 °C 1014.8 hPa WNW 4 km/h 8 km/h 94% 0 mm 30 W/m2
08:04 15.3 °C 14.8 °C 1014.8 hPa WNW 2.3 km/h 4.8 km/h 94% 0 mm 40 W/m2
08:09 15.3 °C 14.8 °C 1014.8 hPa WNW 3.4 km/h 8 km/h 94% 0 mm 42 W/m2
08:14 15.3 °C 14.8 °C 1014.8 hPa WNW 1.4 km/h 6.4 km/h 94% 0 mm 39 W/m2
08:19 15.3 °C 14.8 °C 1014.8 hPa WNW 1.9 km/h 6.4 km/h 94% 0 mm 42 W/m2
08:24 15.2 °C 14.7 °C 1015.1 hPa WNW 0.6 km/h 6.4 km/h 94% 0 mm 54 W/m2
08:29 15.2 °C 14.7 °C 1015.1 hPa WNW 1.4 km/h 6.4 km/h 94% 0 mm 56 W/m2
08:34 15.2 °C 14.7 °C 1015.1 hPa WNW 1.6 km/h 4.8 km/h 94% 0 mm 53 W/m2
08:39 15.2 °C 14.7 °C 1015.1 hPa WNW 1 km/h 4.8 km/h 94% 0 mm 63 W/m2
08:44 15.2 °C 14.7 °C 1015.1 hPa WNW 2.1 km/h 6.4 km/h 94% 0 mm 83 W/m2
08:49 15.2 °C 14.7 °C 1015.1 hPa WNW 1.4 km/h 6.4 km/h 94% 0 mm 107 W/m2
08:54 15.2 °C 14.8 °C 1015.1 hPa Calm   3.2 km/h 94.4% 0 mm 118 W/m2
08:59 15.3 °C 14.9 °C 1015.1 hPa Calm   1.6 km/h 94.6% 0 mm 125 W/m2
09:04 15.3 °C 14.8 °C 1015.1 hPa Calm     94% 0 mm 149 W/m2
09:09 15.4 °C 14.9 °C 1015.1 hPa Calm     94% 0 mm 199 W/m2
09:14 15.5 °C 15.1 °C 1015.1 hPa WNW 1.6 km/h 4.8 km/h 94.6% 0 mm 155 W/m2
09:19 15.5 °C 15.2 °C 1015.1 hPa WNW 1.6 km/h 4.8 km/h 95% 0 mm 135 W/m2
09:24 15.5 °C 15.2 °C 1015.1 hPa Calm   3.2 km/h 95% 0 mm 142 W/m2
09:29 15.7 °C 15.2 °C 1015.1 hPa Calm     94.4% 0 mm 153 W/m2
09:34 15.8 °C 15.3 °C 1015.1 hPa WNW 0.6 km/h 3.2 km/h 94% 0 mm 155 W/m2
09:39 15.8 °C 15.3 °C 1015.1 hPa Calm   1.6 km/h 94% 0 mm 149 W/m2
09:44 15.9 °C 15.4 °C 1015.1 hPa Calm     94% 0 mm 158 W/m2
09:49 16.1 °C 15.6 °C 1015.1 hPa Calm     94% 0 mm 149 W/m2
09:54 16.1 °C 15.6 °C 1015.1 hPa WNW 1.9 km/h 4.8 km/h 94% 0 mm 135 W/m2
09:59 16.2 °C 15.7 °C 1015.1 hPa WNW 0.3 km/h 4.8 km/h 94% 0 mm 151 W/m2
10:04 16.3 °C 15.8 °C 1015.1 hPa WNW 0.3 km/h 3.2 km/h 94% 0 mm 169 W/m2
10:09 16.6 °C 16.1 °C 1015.1 hPa Calm     94% 0 mm 185 W/m2
10:14 16.6 °C 16.1 °C 1015.1 hPa Calm     93.8% 0 mm 179 W/m2
10:19 16.7 °C 16.1 °C 1015.1 hPa Calm   3.2 km/h 93% 0 mm 186 W/m2
10:24 16.8 °C 16.3 °C 1015.1 hPa Calm     93% 0 mm 237 W/m2
10:29 16.9 °C 16.3 °C 1015.1 hPa WNW 1.3 km/h 3.2 km/h 92.8% 0 mm 253 W/m2
10:34 17.1 °C 16.2 °C 1014.8 hPa WNW 0.3 km/h 4.8 km/h 92% 0 mm 253 W/m2
10:39 17.2 °C 16.2 °C 1015.1 hPa Calm     91.2% 0 mm 211 W/m2
10:44 17.5 °C 16.5 °C 1015.1 hPa Calm     91% 0 mm 202 W/m2
10:49 17.8 °C 16.7 °C 1015.1 hPa Calm     90.4% 0 mm 202 W/m2
10:54 17.8 °C 16.6 °C 1015.1 hPa WNW 1 km/h 4.8 km/h 89.4% 0 mm 178 W/m2
10:59 17.8 °C 16.5 °C 1015.1 hPa Calm     89% 0 mm 171 W/m2
11:04 17.9 °C 16.5 °C 1015.1 hPa Calm     88.6% 0 mm 202 W/m2
11:09 18.1 °C 16.6 °C 1014.8 hPa Calm     88% 0 mm 225 W/m2
11:14 18.2 °C 16.6 °C 1014.8 hPa WNW 1.6 km/h 8 km/h 87.6% 0 mm 258 W/m2
11:19 18.1 °C 16.2 °C 1014.8 hPa WNW 3.7 km/h 8 km/h 85.8% 0 mm 262 W/m2
11:24 18.1 °C 15.8 °C 1014.8 hPa WNW 4.2 km/h 9.7 km/h 84% 0 mm 262 W/m2
11:29 18.2 °C 15.8 °C 1014.8 hPa WNW 2.7 km/h 6.4 km/h 83% 0 mm 253 W/m2
11:34 18.3 °C 15.7 °C 1014.4 hPa WNW 1.3 km/h 6.4 km/h 82% 0 mm 241 W/m2
11:39 18.7 °C 16 °C 1014.4 hPa Calm   3.2 km/h 81.6% 0 mm 260 W/m2
11:44 18.8 °C 16.1 °C 1014.4 hPa WNW 1 km/h 4.8 km/h 81% 0 mm 248 W/m2
11:49 18.9 °C 16 °C 1014.4 hPa WNW 3.5 km/h 8 km/h 80.4% 0 mm 237 W/m2
11:54 18.9 °C 16.1 °C 1014.4 hPa WNW 2.4 km/h 6.4 km/h 81% 0 mm 230 W/m2
11:59 18.9 °C 16.1 °C 1014.4 hPa WNW 3.4 km/h 8 km/h 81% 0 mm 193 W/m2
12:04 18.9 °C 16.1 °C 1014.4 hPa WNW 1.9 km/h 6.4 km/h 81% 0 mm 190 W/m2
12:09 18.9 °C 16.2 °C 1014.4 hPa WNW 2.3 km/h 6.4 km/h 81% 0 mm 197 W/m2
12:14 19.1 °C 16.2 °C 1014.4 hPa WNW 2.1 km/h 6.4 km/h 81% 0 mm 167 W/m2
12:19 19 °C 16.2 °C 1014.4 hPa WNW 2.3 km/h 8 km/h 81% 0 mm 142 W/m2
12:24 18.9 °C 16.1 °C 1014.4 hPa WNW 3.9 km/h 6.4 km/h 81% 0 mm 121 W/m2
12:29 18.8 °C 16 °C 1014.4 hPa WNW 2.1 km/h 8 km/h 81% 0 mm 174 W/m2
12:34 18.7 °C 16.1 °C 1014.4 hPa WNW 4 km/h 8 km/h 82% 0 mm 169 W/m2
12:39 18.7 °C 16.1 °C 1014.4 hPa WNW 1.6 km/h 4.8 km/h 82% 0 mm 148 W/m2
12:44 18.8 °C 16.1 °C 1014.4 hPa Calm     82% 0 mm 146 W/m2
12:49 18.8 °C 16.2 °C 1014.4 hPa WNW 3.5 km/h 9.7 km/h 82% 0 mm 148 W/m2
12:54 18.8 °C 16.2 °C 1014.4 hPa WNW 1 km/h 6.4 km/h 82.2% 0 mm 151 W/m2
12:59 18.8 °C 16.3 °C 1014.4 hPa WNW 1.6 km/h 8 km/h 83% 0 mm 165 W/m2
13:04 18.8 °C 16.3 °C 1014.1 hPa WNW 1.3 km/h 8 km/h 83% 0 mm 174 W/m2
13:09 18.8 °C 16.3 °C 1014.1 hPa WNW 0.6 km/h 4.8 km/h 83% 0 mm 174 W/m2
13:14 18.9 °C 16.4 °C 1014.1 hPa WNW 2.9 km/h 6.4 km/h 83% 0 mm 155 W/m2
13:19 18.9 °C 16.4 °C 1014.1 hPa WNW 1.6 km/h 6.4 km/h 83% 0 mm 186 W/m2
13:24 18.9 °C 16.4 °C 1013.8 hPa Calm     83% 0 mm 229 W/m2
13:29 19.1 °C 16.6 °C 1013.8 hPa Calm     82.8% 0 mm 260 W/m2
13:34 19.1 °C 16.4 °C 1013.8 hPa WNW 0.3 km/h 3.2 km/h 82.2% 0 mm 260 W/m2
13:39 19.1 °C 16.4 °C 1013.8 hPa WNW 0.6 km/h 3.2 km/h 82% 0 mm 225 W/m2
13:44 19.1 °C 16.4 °C 1013.8 hPa WNW 1.9 km/h 6.4 km/h 82% 0 mm 171 W/m2
13:49 19.1 °C 16.3 °C 1013.8 hPa WNW 1.1 km/h 4.8 km/h 82% 0 mm 163 W/m2
13:54 19.1 °C 16.3 °C 1013.8 hPa WNW 1.6 km/h 6.4 km/h 82% 0 mm 172 W/m2
13:59 19.1 °C 16.4 °C 1013.8 hPa WNW 2.7 km/h 6.4 km/h 82% 0 mm 151 W/m2
14:04 19.2 °C 16.5 °C 1013.8 hPa Calm   3.2 km/h 82% 0 mm 134 W/m2
14:09 19.2 °C 16.5 °C 1013.8 hPa Calm     82% 0 mm 165 W/m2
14:14 19.3 °C 16.6 °C 1013.8 hPa Calm     82% 0 mm 186 W/m2
14:19 19.3 °C 16.7 °C 1013.4 hPa Calm     82% 0 mm 190 W/m2
14:24 19.6 °C 16.8 °C 1013.4 hPa Calm     81.8% 0 mm 174 W/m2
14:29 19.7 °C 16.9 °C 1013.4 hPa Calm     81.6% 0 mm 151 W/m2
14:34 19.7 °C 16.8 °C 1013.4 hPa Calm     81% 0 mm 102 W/m2
14:39 19.7 °C 16.8 °C 1013.4 hPa Calm     81% 0 mm 83 W/m2
14:44 19.6 °C 16.7 °C 1013.4 hPa Calm     81% 0 mm 116 W/m2
14:49 19.6 °C 16.7 °C 1013.4 hPa Calm     81% 0 mm 149 W/m2
14:54 19.7 °C 16.7 °C 1013.4 hPa Calm     81% 0 mm 139 W/m2
14:59 19.6 °C 16.7 °C 1013.4 hPa Calm     81% 0 mm 91 W/m2
15:04 19.7 °C 16.8 °C 1013.4 hPa Calm     81% 0 mm 69 W/m2
15:09 19.7 °C 16.8 °C 1013.1 hPa Calm     81% 0 mm 72 W/m2
15:14 19.7 °C 16.8 °C 1013.1 hPa Calm     81% 0 mm 95 W/m2
15:19 19.6 °C 16.7 °C 1013.1 hPa Calm     81.2% 0 mm 132 W/m2
15:24 19.3 °C 16.6 °C 1013.1 hPa Calm     82% 0 mm 160 W/m2
15:29 19.2 °C 16.6 °C 1013.1 hPa Calm     82.6% 0 mm 178 W/m2
15:34 19.3 °C 16.8 °C 1013.1 hPa WNW 0.6 km/h 3.2 km/h 83% 0 mm 188 W/m2
15:39 19.4 °C 16.9 °C 1013.1 hPa Calm   1.6 km/h 83% 0 mm 185 W/m2
15:44 19.6 °C 17.1 °C 1012.8 hPa WNW 0.8 km/h 3.2 km/h 83% 0 mm 174 W/m2
15:49 19.4 °C 16.8 °C 1012.8 hPa Calm   3.2 km/h 82% 0 mm 162 W/m2
15:54 19.3 °C 16.7 °C 1012.8 hPa WNW 0.3 km/h 3.2 km/h 82.4% 0 mm 132 W/m2
15:59 19.2 °C 16.7 °C 1012.8 hPa WNW 1.6 km/h 4.8 km/h 83% 0 mm 114 W/m2
16:04 19.2 °C 16.7 °C 1012.8 hPa WNW 1.6 km/h 4.8 km/h 83% 0 mm 97 W/m2
16:09 19.2 °C 16.7 °C 1012.8 hPa WNW 2.6 km/h 8 km/h 83% 0 mm 72 W/m2
16:14 19.1 °C 16.7 °C 1012.8 hPa WNW 4.5 km/h 9.7 km/h 83.6% 0 mm 54 W/m2
16:19 18.9 °C 16.8 °C 1012.8 hPa WNW 1 km/h 9.7 km/h 84.8% 0 mm 49 W/m2
16:24 18.8 °C 16.8 °C 1012.8 hPa WNW 3.1 km/h 8 km/h 85% 0 mm 63 W/m2
16:29 18.7 °C 16.8 °C 1012.8 hPa WNW 2.1 km/h 8 km/h 86% 0 mm 77 W/m2
16:34 18.6 °C 16.7 °C 1012.8 hPa WNW 1.9 km/h 8 km/h 86% 0 mm 81 W/m2
16:39 18.6 °C 16.8 °C 1012.8 hPa WNW 4.7 km/h 9.7 km/h 86.6% 0 mm 76 W/m2
16:44 18.4 °C 16.6 °C 1012.8 hPa WNW 2.6 km/h 9.7 km/h 86.6% 0 mm 60 W/m2
16:49 18.4 °C 16.7 °C 1012.8 hPa WNW 1.9 km/h 8 km/h 87% 0 mm 60 W/m2
16:54 18.4 °C 16.7 °C 1012.8 hPa WNW 1.3 km/h 6.4 km/h 87% 0 mm 56 W/m2
16:59 18.3 °C 16.7 °C 1012.8 hPa WNW 2.1 km/h 6.4 km/h 87.2% 0 mm 65 W/m2
17:04 18.3 °C 16.8 °C 1012.8 hPa WNW 4.8 km/h 9.7 km/h 88% 0 mm 65 W/m2
17:09 18.2 °C 16.7 °C 1012.8 hPa WNW 1 km/h 8 km/h 88% 0 mm 60 W/m2
17:14 18.2 °C 16.7 °C 1012.8 hPa Calm   3.2 km/h 88% 0 mm 69 W/m2
17:19 18.3 °C 16.8 °C 1012.8 hPa Calm     88% 0 mm 72 W/m2
17:24 18.5 °C 17 °C 1012.8 hPa Calm     88% 0 mm 72 W/m2
17:29 18.6 °C 17.1 °C 1012.8 hPa Calm     88% 0 mm 63 W/m2
17:34 18.6 °C 17.1 °C 1012.4 hPa WNW 0.3 km/h 6.4 km/h 87.8% 0 mm 51 W/m2
17:39 18.4 °C 16.7 °C 1012.4 hPa WNW 1.3 km/h 6.4 km/h 87% 0 mm 39 W/m2
17:44 18.4 °C 16.7 °C 1012.4 hPa WNW 0.6 km/h 4.8 km/h 87% 0 mm 35 W/m2
17:49 18.4 °C 16.7 °C 1012.4 hPa Calm   1.6 km/h 87% 0 mm 33 W/m2
17:54 18.4 °C 16.7 °C 1012.4 hPa WNW 0.6 km/h 4.8 km/h 87% 0 mm 25 W/m2
17:59 18.5 °C 16.8 °C 1012.4 hPa Calm   4.8 km/h 87% 0 mm 21 W/m2
18:04 18.5 °C 16.8 °C 1012.4 hPa WNW 0.3 km/h 4.8 km/h 87% 0 mm 19 W/m2
18:09 18.4 °C 16.7 °C 1012.4 hPa WNW 1.3 km/h 4.8 km/h 87% 0 mm 18 W/m2
18:14 18.3 °C 16.6 °C 1012.4 hPa WNW 0.3 km/h 4.8 km/h 87% 0 mm 18 W/m2
18:19 18.3 °C 16.6 °C 1012.4 hPa Calm   3.2 km/h 87% 0 mm 16 W/m2
18:24 18.3 °C 16.6 °C 1012.4 hPa WNW 2.9 km/h 8 km/h 87% 0 mm 14 W/m2
18:29 18.3 °C 16.6 °C 1012.4 hPa WNW 0.6 km/h 4.8 km/h 87% 0 mm 9 W/m2
18:34 18.3 °C 16.7 °C 1012.4 hPa WNW 0.6 km/h 6.4 km/h 87.4% 0 mm 5 W/m2
18:39 18.3 °C 16.8 °C 1012.4 hPa WNW 1 km/h 6.4 km/h 88% 0 mm 0 W/m2
18:44 18.3 °C 16.8 °C 1012.4 hPa WNW 0.8 km/h 6.4 km/h 88% 0 mm 0 W/m2
18:49 18.3 °C 16.8 °C 1012.4 hPa WNW 0.6 km/h 6.4 km/h 88% 0 mm 0 W/m2
18:54 18.3 °C 16.8 °C 1012.4 hPa WNW 0.3 km/h 3.2 km/h 88% 0 mm 0 W/m2
18:59 18.3 °C 16.8 °C 1012.4 hPa WNW 0.6 km/h 4.8 km/h 88% 0 mm 0 W/m2
19:04 18.3 °C 16.8 °C 1012.4 hPa Calm   3.2 km/h 88% 0 mm 0 W/m2
19:09 18.2 °C 16.7 °C 1012.4 hPa WNW 2.6 km/h 8 km/h 88% 0 mm 0 W/m2
19:14 18.2 °C 16.7 °C 1012.4 hPa WNW 2.9 km/h 8 km/h 88% 0 mm 0 W/m2
19:19 18.1 °C 16.7 °C 1012.4 hPa WNW 2.7 km/h 8 km/h 88.4% 0 mm 0 W/m2
19:24 18.1 °C 16.8 °C 1012.4 hPa Calm   3.2 km/h 89% 0 mm 0 W/m2
19:29 18.1 °C 16.8 °C 1012.4 hPa WNW 0.3 km/h 3.2 km/h 89% 0 mm 0 W/m2
19:34 18 °C 16.7 °C 1012.4 hPa WNW 4.2 km/h 8 km/h 89% 0 mm 0 W/m2
19:39 17.8 °C 16.6 °C 1012.4 hPa WNW 7.2 km/h 11.3 km/h 89.4% 0 mm 0 W/m2
19:44 17.8 °C 16.6 °C 1012.4 hPa WNW 6 km/h 12.9 km/h 90% 0 mm 0 W/m2
19:49 17.7 °C 16.5 °C 1012.4 hPa West 7.6 km/h 14.5 km/h 90% 0 mm 0 W/m2
19:54 17.6 °C 16.4 °C 1012.4 hPa WSW 5.5 km/h 9.7 km/h 90% 0 mm 0 W/m2
19:59 17.6 °C 16.3 °C 1012.4 hPa WSW 4.5 km/h 9.7 km/h 90% 0 mm 0 W/m2
20:04 17.4 °C 16.2 °C 1012.4 hPa WSW 2.7 km/h 9.7 km/h 90% 0 mm 0 W/m2
20:09 17.4 °C 16.2 °C 1012.4 hPa WSW 4.8 km/h 11.3 km/h 90% 0 mm 0 W/m2
20:14 17.3 °C 16.1 °C 1012.4 hPa WSW 4.5 km/h 8 km/h 90% 0 mm 0 W/m2
20:19 17.3 °C 16.1 °C 1012.4 hPa WSW 4.2 km/h 12.9 km/h 90% 0 mm 0 W/m2
20:24 17.3 °C 16.1 °C 1012.4 hPa WSW 1.6 km/h 4.8 km/h 90% 0 mm 0 W/m2
20:29 17.2 °C 16 °C 1012.4 hPa WSW 2.1 km/h 4.8 km/h 90% 0 mm 0 W/m2
20:34 17.2 °C 16 °C 1012.4 hPa WSW 4 km/h 9.7 km/h 90% 0 mm 0 W/m2
20:39 17.2 °C 16 °C 1012.4 hPa WSW 0.6 km/h 9.7 km/h 90% 0 mm 0 W/m2
20:44 17.2 °C 16 °C 1012.4 hPa WSW 1.6 km/h 6.4 km/h 90% 0 mm 0 W/m2
20:49 17.1 °C 15.9 °C 1012.4 hPa WSW 4.3 km/h 12.9 km/h 90% 0 mm 0 W/m2
20:54 17.1 °C 15.9 °C 1012.4 hPa WSW 4 km/h 11.3 km/h 90% 0 mm 0 W/m2
20:59 17.1 °C 15.9 °C 1012.4 hPa WSW 2.3 km/h 8 km/h 90% 0 mm 0 W/m2
21:04 17.1 °C 15.9 °C 1012.4 hPa Calm   1.6 km/h 90% 0 mm 0 W/m2
21:09 17.1 °C 15.9 °C 1012.4 hPa WSW 0.6 km/h 3.2 km/h 90% 0 mm 0 W/m2
21:14 17.1 °C 15.9 °C 1012.1 hPa Calm     90% 0 mm 0 W/m2
21:19 17.1 °C 15.9 °C 1012.1 hPa WSW 0.6 km/h 3.2 km/h 90% 0 mm 0 W/m2
21:24 17.1 °C 15.9 °C 1012.1 hPa WSW 1.6 km/h 6.4 km/h 90% 0 mm 0 W/m2
21:29 16.9 °C 15.7 °C 1012.1 hPa WSW 0.3 km/h 3.2 km/h 90% 0 mm 0 W/m2
21:34 16.9 °C 15.7 °C 1012.1 hPa Calm   1.6 km/h 90% 0 mm 0 W/m2
21:39 16.9 °C 15.7 °C 1012.1 hPa Calm     90% 0 mm 0 W/m2
21:44 16.8 °C 15.6 °C 1012.1 hPa WSW 1.4 km/h 6.4 km/h 90% 0 mm 0 W/m2
21:49 16.7 °C 15.3 °C 1012.4 hPa WSW 1.6 km/h 6.4 km/h 89% 0 mm 0 W/m2
21:54 16.7 °C 15.4 °C 1012.4 hPa WSW 1.6 km/h 8 km/h 89.2% 0 mm 0 W/m2
21:59 16.6 °C 15.3 °C 1012.4 hPa WSW 2.3 km/h 6.4 km/h 89% 0 mm 0 W/m2
22:04 16.4 °C 15.2 °C 1012.4 hPa WSW 4 km/h 8 km/h 89% 0 mm 0 W/m2
22:09 16.3 °C 14.9 °C 1012.4 hPa WSW 0.3 km/h 3.2 km/h 88.6% 0 mm 0 W/m2
22:14 16.3 °C 14.8 °C 1012.4 hPa WSW 1 km/h 4.8 km/h 88% 0 mm 0 W/m2
22:19 16.2 °C 14.7 °C 1012.4 hPa Calm     88% 0 mm 0 W/m2
22:24 16.2 °C 14.7 °C 1012.4 hPa WSW 1 km/h 4.8 km/h 88% 0 mm 0 W/m2
22:29 16 °C 14.5 °C 1012.4 hPa WSW 0.6 km/h 4.8 km/h 88% 0 mm 0 W/m2
22:34 15.9 °C 14.4 °C 1012.4 hPa WSW 0.6 km/h 3.2 km/h 88% 0 mm 0 W/m2
22:39 15.9 °C 14.4 °C 1012.4 hPa WSW 0.3 km/h 3.2 km/h 88% 0 mm 0 W/m2
22:44 15.8 °C 14.3 °C 1012.4 hPa WSW 2.3 km/h 6.4 km/h 88% 0 mm 0 W/m2
22:49 15.8 °C 14.4 °C 1012.4 hPa Calm     88.8% 0 mm 0 W/m2
22:54 15.8 °C 14.5 °C 1012.4 hPa WSW 0.6 km/h 4.8 km/h 89% 0 mm 0 W/m2
22:59 15.8 °C 14.5 °C 1012.4 hPa WSW 0.8 km/h 4.8 km/h 89% 0 mm 0 W/m2
23:04 15.8 °C 14.5 °C 1012.4 hPa WSW 2.9 km/h 4.8 km/h 89% 0 mm 0 W/m2
23:09 15.8 °C 14.5 °C 1012.4 hPa WSW 0.6 km/h 4.8 km/h 89% 0 mm 0 W/m2
23:14 15.7 °C 14.4 °C 1012.4 hPa WSW 0.6 km/h 3.2 km/h 89% 0 mm 0 W/m2
23:19 15.7 °C 14.4 °C 1012.4 hPa WSW 0.6 km/h 4.8 km/h 89% 0 mm 0 W/m2
23:24 15.7 °C 14.3 °C 1012.4 hPa WSW 1.9 km/h 4.8 km/h 89% 0 mm 0 W/m2
23:29 15.6 °C 14.3 °C 1012.1 hPa WSW 0.6 km/h 4.8 km/h 89% 0 mm 0 W/m2
23:34 15.6 °C 14.3 °C 1012.1 hPa Calm   1.6 km/h 89% 0 mm 0 W/m2
23:39 15.5 °C 14.2 °C 1012.1 hPa Calm   1.6 km/h 89% 0 mm 0 W/m2
23:44 15.5 °C 14.2 °C 1012.1 hPa WSW 1.6 km/h 4.8 km/h 89% 0 mm 0 W/m2
23:49 15.4 °C 14.1 °C 1012.1 hPa WSW 2.6 km/h 6.4 km/h 89% 0 mm 0 W/m2
23:54 15.4 °C 14.1 °C 1012.1 hPa Calm   4.8 km/h 89% 0 mm 0 W/m2
23:59 15.3 °C 14.1 °C 1012.1 hPa WSW 0.3 km/h 4.8 km/h 89% 0 mm 0 W/m2
Bath Spa Weather
Compliments of Weather Underground - 2 mb